Location: Ku?niki
(51.4449°N, 17.8974°E)
Time: 07:14:11
(UTC+00:00)

ATLAS 3B R/B - Pass Details

Date: 18 September 2020
Orbit: 1016 x 1179 km, 63.8° (Epoch: 04 October)

Event Time Altitude Azimuth Distance (km) Brightness Sun altitude
Rises 19:31:31 0° 314° (NW) 3,811 7.0 -23.6°
Reaches altitude 10° 19:34:09 10° 317° (NW) 2,873 6.0 -23.9°
Maximum altitude 19:40:55 66° 40° (NE) 1,175 2.8 -24.7°
Enters shadow 19:42:49 48° 99° (E) 1,396 2.9 -24.9°
